User: anonymous   Login
Location: Little Chesterford
(52.0500°N, 0.1833°E)
Time: 16:20:15
(UTC+00:00)
Language:

Okean O Rocket - Orbit

View from above orbital plane
View from above orbital plane
View from above satellite
View from above satellite

Ground track
Ground track

The orbit data is extracted from the following two-line orbital elements,

1 25861U 99039B   24062.13638120  .00000702  00000-0  10018-3 0  9992
2 25861  98.1048 107.2458 0016426 122.1673 238.1134 14.79845537327830
Epoch (UTC): 02 March 2024 03:16:23
Eccentricity: 0.0016426
inclination: 98.1048°
perigee height: 618 km
apogee height: 641 km
right ascension of ascending node: 107.2458°
argument of perigee: 122.1673°
revolutions per day: 14.79845537
mean anomaly at epoch: 238.1134°
orbit number at epoch: 32783

The dashed part of the orbit path shows where the satellite is in the earth's shadow,  

DLR